TimeCDT,TemperatureF,Dew PointF,Humidity,Sea Level PressureIn,VisibilityMPH,Wind Direction,Wind SpeedMPH,Gust SpeedMPH,PrecipitationIn,Events,Conditions,WindDirDegrees,DateUTC
12:51 AM,63.0,55.0,75,30.03,10.0,SE,5.8,-,N/A,,Clear,140,2012-04-19 05:51:00
1:51 AM,63.0,55.9,78,30.01,10.0,SE,5.8,-,N/A,,Clear,140,2012-04-19 06:51:00
2:51 AM,63.0,55.9,78,29.99,10.0,SE,6.9,-,N/A,,Clear,130,2012-04-19 07:51:00
3:51 AM,61.0,57.0,87,29.99,10.0,Calm,Calm,-,N/A,,Clear,0,2012-04-19 08:51:00
4:51 AM,61.0,55.9,83,29.97,10.0,Calm,Calm,-,N/A,,Clear,0,2012-04-19 09:51:00
5:51 AM,62.1,55.9,80,29.97,10.0,Calm,Calm,-,N/A,,Clear,0,2012-04-19 10:51:00
6:51 AM,61.0,55.9,83,29.98,10.0,SE,3.5,-,N/A,,Clear,140,2012-04-19 11:51:00
7:51 AM,62.1,57.9,86,29.98,10.0,SSE,3.5,-,N/A,,Clear,160,2012-04-19 12:51:00
8:51 AM,68.0,61.0,78,29.99,10.0,South,4.6,-,N/A,,Clear,170,2012-04-19 13:51:00
9:51 AM,73.0,62.1,68,29.99,10.0,South,6.9,-,N/A,,Clear,180,2012-04-19 14:51:00
10:51 AM,75.0,61.0,62,29.99,10.0,SSE,8.1,-,N/A,,Partly Cloudy,160,2012-04-19 15:51:00
11:51 AM,78.1,59.0,52,29.98,10.0,South,6.9,-,N/A,,Partly Cloudy,190,2012-04-19 16:51:00
12:51 PM,80.1,60.1,50,29.95,10.0,SSE,8.1,-,N/A,,Partly Cloudy,150,2012-04-19 17:51:00
1:51 PM,81.0,59.0,47,29.91,10.0,SSE,9.2,-,N/A,,Partly Cloudy,160,2012-04-19 18:51:00
2:51 PM,82.9,62.1,49,29.89,10.0,SSE,11.5,20.7,N/A,,Partly Cloudy,150,2012-04-19 19:51:00
3:51 PM,82.0,63.0,52,29.86,10.0,SSE,12.7,-,N/A,,Partly Cloudy,150,2012-04-19 20:51:00
4:51 PM,82.0,63.0,52,29.84,10.0,SE,13.8,-,N/A,,Partly Cloudy,130,2012-04-19 21:51:00
5:51 PM,79.0,63.0,58,29.83,10.0,ESE,20.7,-,N/A,,Clear,120,2012-04-19 22:51:00
6:51 PM,77.0,62.6,61,29.82,10.0,SE,17.3,-,N/A,,Partly Cloudy,130,2012-04-19 23:51:00
7:51 PM,73.4,62.6,69,29.81,10.0,SE,17.3,-,N/A,,Partly Cloudy,140,2012-04-20 00:51:00
8:51 PM,72.0,62.1,71,29.81,10.0,SE,15.0,-,N/A,,Clear,140,2012-04-20 01:51:00
9:51 PM,71.1,61.0,70,29.82,10.0,SE,11.5,-,N/A,,Clear,140,2012-04-20 02:51:00
10:51 PM,70.0,62.1,76,29.83,10.0,SSE,9.2,-,N/A,,Clear,150,2012-04-20 03:51:00
11:51 PM,68.0,63.0,84,29.83,10.0,SSE,5.8,-,N/A,,Clear,160,2012-04-20 04:51:00